| time (UTC) | temp C | wind direction | speed KPH | gust KPH | rain 1hr cm | rain 24hr cm | rain mn cm | humidity % | barometer mb |
| 20260502221008 | 6 | 198 | 0.0 | 3.2 | 0.00 | 0.00 | 0.00 | 62 | 1015.5 |
| 20260502220508 | 6 | 161 | 0.0 | 3.2 | 0.00 | 0.00 | 0.00 | 63 | 1015.5 |
| 20260502220007 | 6 | 146 | 1.6 | 3.2 | 0.00 | 0.00 | 0.00 | 62 | 1015.5 |
| 20260502215507 | 6 | 227 | 1.6 | 4.8 | 0.00 | 0.00 | 0.00 | 60 | 1015.6 |
| 20260502215008 | 6 | 261 | 1.6 | 4.8 | 0.00 | 0.00 | 0.00 | 62 | 1015.6 |
| 20260502214508 | 6 | 298 | 1.6 | 4.8 | 0.00 | 0.00 | 0.00 | 61 | 1015.5 |
| 20260502214008 | 6 | 182 | 1.6 | 4.8 | 0.00 | 0.00 | 0.00 | 61 | 1015.4 |
| 20260502213507 | 6 | 167 | 1.6 | 4.8 | 0.00 | 0.00 | 0.00 | 60 | 1015.3 |
| 20260502213008 | 6 | 309 | 1.6 | 3.2 | 0.00 | 0.00 | 0.00 | 61 | 1015.3 |
| 20260502212508 | 6 | 5 | 1.6 | 3.2 | 0.00 | 0.00 | 0.00 | 58 | 1015.3 |
| 20260502212007 | 6 | 5 | 0.0 | 3.2 | 0.00 | 0.00 | 0.00 | 59 | 1015.4 |
| 20260502211721 | 6 | 338 | 1.6 | 8.0 | 0.00 | 0.00 | 0.00 | 60 | 1015.3 |
| 20260502210954 | 6 | 229 | 1.6 | 8.0 | 0.00 | 0.00 | 0.00 | 56 | 1015.2 |
| 20260502210449 | 6 | 277 | 1.6 | 4.8 | 0.00 | 0.00 | 0.00 | 57 | 1015.3 |
| 20260502205943 | 6 | 193 | 1.6 | 6.4 | 0.00 | 0.00 | 0.00 | 56 | 1015.3 |
| 20260502205437 | 7 | 316 | 1.6 | 9.7 | 0.00 | 0.00 | 0.00 | 58 | 1015.2 |
| 20260502204931 | 7 | 196 | 1.6 | 9.7 | 0.00 | 0.00 | 0.00 | 60 | 1015.3 |
| 20260502204425 | 7 | 272 | 3.2 | 9.7 | 0.00 | 0.00 | 0.00 | 59 | 1015.2 |
| 20260502203919 | 7 | 321 | 1.6 | 9.7 | 0.00 | 0.00 | 0.00 | 59 | 1015.2 |
| 20260502203412 | 6 | 270 | 1.6 | 11.3 | 0.00 | 0.00 | 0.00 | 59 | 1015.2 |
| 20260502202907 | 6 | 310 | 1.6 | 11.3 | 0.00 | 0.00 | 0.00 | 61 | 1015.3 |
| 20260502202402 | 6 | 259 | 1.6 | 4.8 | 0.00 | 0.00 | 0.00 | 63 | 1015.4 |
| 20260502202115 | 6 | 284 | 1.6 | 4.8 | 0.00 | 0.00 | 0.00 | 62 | 1015.3 |
| 20260502201349 | 6 | 246 | 1.6 | 8.0 | 0.00 | 0.00 | 0.00 | 63 | 1015.3 |
| 20260502200843 | 6 | 258 | 1.6 | 8.0 | 0.00 | 0.00 | 0.00 | 63 | 1015.4 |
| 20260502200337 | 6 | 107 | 1.6 | 9.7 | 0.00 | 0.00 | 0.00 | 64 | 1015.4 |
| 20260502195830 | 6 | 262 | 1.6 | 9.7 | 0.00 | 0.00 | 0.00 | 63 | 1015.5 |
| 20260502195324 | 6 | 219 | 1.6 | 6.4 | 0.00 | 0.00 | 0.00 | 63 | 1015.5 |
| 20260502194818 | 6 | 283 | 1.6 | 6.4 | 0.00 | 0.00 | 0.00 | 64 | 1015.5 |
| 20260502194312 | 7 | 337 | 1.6 | 6.4 | 0.00 | 0.00 | 0.00 | 63 | 1015.5 |
| 20260502193806 | 7 | 197 | 3.2 | 8.0 | 0.00 | 0.00 | 0.00 | 59 | 1015.4 |
| 20260502193300 | 7 | 198 | 3.2 | 8.0 | 0.00 | 0.00 | 0.00 | 61 | 1015.4 |
| 20260502192755 | 7 | 209 | 1.6 | 6.4 | 0.00 | 0.00 | 0.00 | 60 | 1015.4 |
| 20260502192734 | 6 | 220 | 1.6 | 4.8 | 0.00 | 0.00 | 0.00 | 60 | 1015.5 |
| 20260502191742 | 6 | 243 | 1.6 | 6.4 | 0.00 | 0.00 | 0.00 | 60 | 1015.5 |
| 20260502191237 | 6 | 208 | 1.6 | 6.4 | 0.00 | 0.00 | 0.00 | 62 | 1015.5 |
| 20260502190731 | 6 | 167 | 1.6 | 6.4 | 0.00 | 0.00 | 0.00 | 62 | 1015.6 |
| 20260502190225 | 6 | 175 | 1.6 | 6.4 | 0.00 | 0.00 | 0.00 | 63 | 1015.6 |
| 20260502185719 | 6 | 178 | 1.6 | 6.4 | 0.00 | 0.00 | 0.00 | 62 | 1015.6 |
| 20260502185214 | 6 | 253 | 1.6 | 6.4 | 0.00 | 0.00 | 0.00 | 59 | 1015.6 |
| 20260502184707 | 7 | 265 | 1.6 | 6.4 | 0.00 | 0.00 | 0.00 | 59 | 1015.8 |
| 20260502184421 | 7 | 204 | 1.6 | 8.0 | 0.00 | 0.03 | 0.00 | 58 | 1015.6 |
| 20260502183917 | 7 | 304 | 1.6 | 8.0 | 0.00 | 0.03 | 0.00 | 57 | 1015.6 |
| 20260502183149 | 8 | 285 | 3.2 | 9.7 | 0.00 | 0.03 | 0.00 | 58 | 1015.8 |
| 20260502182910 | 8 | 0 | 1.6 | 9.7 | 0.00 | 0.03 | 0.00 | 58 | 1015.6 |
| 20260502182359 | 8 | 250 | 3.2 | 9.7 | 0.00 | 0.03 | 0.00 | 60 | 1015.6 |
| 20260502181631 | 7 | 269 | 3.2 | 9.7 | 0.00 | 0.03 | 0.00 | 64 | 1015.6 |
| 20260502181125 | 7 | 140 | 3.2 | 11.3 | 0.00 | 0.03 | 0.00 | 63 | 1015.9 |
| 20260502180619 | 6 | 213 | 1.6 | 11.3 | 0.00 | 0.03 | 0.00 | 63 | 1015.9 |
| 20260502180113 | 6 | 123 | 1.6 | 4.8 | 0.00 | 0.03 | 0.00 | 69 | 1016.0 |
| 20260502170507 | 6 | 180 | 6.4 | 11.3 | 0.00 | 0.03 | 0.00 | 67 | 1015.8 |
| 20260502163938 | 6 | 171 | 3.2 | 4.8 | 0.00 | 0.08 | 0.00 | 62 | 1015.6 |
| 20260502163438 | 6 | 234 | 3.2 | 6.4 | 0.00 | 0.08 | 0.00 | 62 | 1015.9 |
| 20260502162937 | 6 | 205 | 1.6 | 6.4 | 0.00 | 0.08 | 0.00 | 63 | 1015.9 |
| 20260502162659 | 6 | 291 | 1.6 | 6.4 | 0.00 | 0.08 | 0.00 | 65 | 1016.0 |
| 20260502161937 | 6 | 227 | 1.6 | 6.4 | 0.00 | 0.08 | 0.00 | 65 | 1016.0 |
| 20260502161437 | 6 | 207 | 3.2 | 6.4 | 0.00 | 0.08 | 0.00 | 67 | 1016.1 |
| 20260502160935 | 5 | 179 | 1.6 | 6.4 | 0.00 | 0.10 | 0.00 | 67 | 1016.0 |
| 20260502160435 | 5 | 184 | 1.6 | 8.0 | 0.00 | 0.10 | 0.00 | 67 | 1016.0 |
| 20260502151931 | 5 | 306 | 1.6 | 6.4 | 0.00 | 0.13 | 0.00 | 68 | 1015.9 |
| 20260502151427 | 5 | 284 | 1.6 | 6.4 | 0.00 | 0.13 | 0.00 | 70 | 1015.9 |
| 20260502150927 | 5 | 213 | 1.6 | 4.8 | 0.00 | 0.13 | 0.00 | 69 | 1015.8 |
| 20260502150427 | 5 | 281 | 1.6 | 6.4 | 0.00 | 0.13 | 0.00 | 70 | 1015.8 |
| 20260502130330 | 3 | 210 | 3.2 | 6.4 | 0.00 | 0.23 | 0.00 | 82 | 1015.3 |
| 20260502123800 | 2 | 194 | 1.6 | 6.4 | 0.00 | 0.23 | 0.00 | 82 | 1015.1 |
| 20260502123451 | 1 | 220 | 1.6 | 4.8 | 0.00 | 0.23 | 0.00 | 82 | 1015.1 |
| 20260502123341 | 1 | 202 | 1.6 | 4.8 | 0.00 | 0.23 | 0.00 | 81 | 1015.1 |
| 20260502122252 | 1 | 173 | 3.2 | 6.4 | 0.00 | 0.23 | 0.00 | 81 | 1015.1 |
| 20260502121751 | 1 | 189 | 3.2 | 6.4 | 0.00 | 0.23 | 0.00 | 82 | 1015.1 |
| 20260502121510 | 1 | 178 | 1.6 | 6.4 | 0.00 | 0.23 | 0.00 | 82 | 1015.1 |
| 20260502120754 | 1 | 184 | 1.6 | 4.8 | 0.00 | 0.23 | 0.00 | 83 | 1015.0 |
| 20260502120248 | 1 | 185 | 1.6 | 4.8 | 0.00 | 0.23 | 0.00 | 84 | 1015.0 |
| 20260502115748 | 1 | 188 | 1.6 | 3.2 | 0.00 | 0.23 | 0.00 | 85 | 1015.0 |
| 20260502115246 | 0 | 188 | 1.6 | 3.2 | 0.00 | 0.23 | 0.00 | 85 | 1015.0 |
| 20260502114747 | 0 | 196 | 1.6 | 3.2 | 0.00 | 0.23 | 0.00 | 86 | 1015.0 |
| 20260502114510 | 0 | 200 | 1.6 | 3.2 | 0.00 | 0.23 | 0.00 | 87 | 1015.1 |
| 20260502113747 | 0 | 198 | 1.6 | 3.2 | 0.00 | 0.23 | 0.00 | 86 | 1015.1 |
| 20260502113247 | 0 | 196 | 1.6 | 4.8 | 0.00 | 0.23 | 0.00 | 87 | 1015.0 |
| 20260502112746 | 0 | 194 | 1.6 | 4.8 | 0.00 | 0.23 | 0.00 | 87 | 1015.0 |
| 20260502112246 | 0 | 196 | 1.6 | 3.2 | 0.00 | 0.23 | 0.00 | 87 | 1015.0 |
| 20260502111747 | 0 | 196 | 1.6 | 3.2 | 0.00 | 0.23 | 0.00 | 88 | 1015.0 |
| 20260502111502 | 0 | 195 | 1.6 | 3.2 | 0.00 | 0.23 | 0.00 | 88 | 1014.9 |
| 20260502110744 | 0 | 195 | 1.6 | 3.2 | 0.00 | 0.23 | 0.00 | 88 | 1015.0 |
| 20260502110242 | 0 | 195 | 1.6 | 3.2 | 0.00 | 0.23 | 0.00 | 88 | 1015.0 |
| 20260502105736 | 0 | 195 | 1.6 | 1.6 | 0.00 | 0.23 | 0.00 | 88 | 1014.9 |
| 20260502105230 | 0 | 195 | 1.6 | 3.2 | 0.00 | 0.23 | 0.00 | 87 | 1014.9 |
| 20260502104724 | 0 | 195 | 0.0 | 3.2 | 0.00 | 0.23 | 0.00 | 87 | 1014.8 |
| 20260502104709 | 0 | 195 | 0.0 | 3.2 | 0.00 | 0.23 | 0.00 | 87 | 1014.8 |
| 20260502103718 | 0 | 195 | 0.0 | 3.2 | 0.00 | 0.23 | 0.00 | 87 | 1014.8 |
| 20260502103216 | 0 | 195 | 0.0 | 0.0 | 0.00 | 0.23 | 0.00 | 86 | 1014.8 |
| 20260502102715 | 0 | 195 | 0.0 | 0.0 | 0.00 | 0.23 | 0.00 | 86 | 1014.8 |
| 20260502102212 | 0 | 195 | 0.0 | 3.2 | 0.00 | 0.23 | 0.00 | 86 | 1014.8 |
| 20260502101933 | 0 | 195 | 0.0 | 3.2 | 0.00 | 0.23 | 0.00 | 86 | 1014.8 |
| 20260502101209 | 0 | 195 | 0.0 | 3.2 | 0.00 | 0.23 | 0.00 | 86 | 1014.7 |
| 20260502100706 | 0 | 195 | 0.0 | 3.2 | 0.00 | 0.23 | 0.00 | 85 | 1014.7 |
| 20260502100206 | 0 | 195 | 0.0 | 3.2 | 0.00 | 0.23 | 0.00 | 85 | 1014.7 |
| 20260502091152 | 1 | 195 | 1.6 | 3.2 | 0.00 | 0.23 | 0.00 | 83 | 1014.6 |
| 20260502090652 | 1 | 195 | 1.6 | 3.2 | 0.00 | 0.23 | 0.00 | 83 | 1014.6 |
| 20260502090152 | 1 | 192 | 1.6 | 3.2 | 0.00 | 0.23 | 0.00 | 83 | 1014.6 |
| 20260502071122 | 2 | 188 | 3.2 | 4.8 | 0.00 | 0.23 | 0.00 | 89 | 1014.7 |
| 20260502070622 | 2 | 184 | 3.2 | 4.8 | 0.00 | 0.23 | 0.00 | 89 | 1014.7 |
| 20260502070122 | 2 | 186 | 3.2 | 4.8 | 0.00 | 0.23 | 0.00 | 90 | 1014.6 |
| 20260502065845 | 2 | 179 | 1.6 | 4.8 | 0.00 | 0.23 | 0.00 | 90 | 1014.7 |
| 20260502065349 | 2 | 188 | 1.6 | 4.8 | 0.00 | 0.23 | 0.00 | 91 | 1014.8 |
| 20260502064622 | 2 | 185 | 1.6 | 3.2 | 0.00 | 0.23 | 0.00 | 91 | 1014.8 |
| 20260502064121 | 2 | 182 | 1.6 | 3.2 | 0.00 | 0.23 | 0.00 | 91 | 1014.8 |
| 20260502063622 | 2 | 181 | 1.6 | 3.2 | 0.00 | 0.23 | 0.00 | 91 | 1014.8 |
| 20260502063122 | 2 | 184 | 1.6 | 4.8 | 0.00 | 0.23 | 0.00 | 91 | 1014.9 |
| 20260502062622 | 2 | 184 | 1.6 | 4.8 | 0.00 | 0.23 | 0.00 | 91 | 1014.9 |
| 20260502062122 | 2 | 174 | 3.2 | 4.8 | 0.00 | 0.23 | 0.00 | 92 | 1014.9 |
| 20260502061621 | 2 | 178 | 3.2 | 4.8 | 0.00 | 0.23 | 0.00 | 92 | 1014.9 |
| 20260502061122 | 2 | 180 | 1.6 | 4.8 | 0.00 | 0.23 | 0.00 | 92 | 1014.9 |
| 20260502060622 | 2 | 180 | 1.6 | 3.2 | 0.00 | 0.23 | 0.00 | 92 | 1014.9 |
| 20260502060613 | 2 | 191 | 1.6 | 1.6 | 0.00 | 0.23 | 0.00 | 92 | 1014.9 |
| 20260502055622 | 2 | 195 | 1.6 | 1.6 | 0.00 | 0.23 | 0.00 | 92 | 1014.9 |
| 20260502055122 | 2 | 196 | 0.0 | 1.6 | 0.00 | 0.23 | 0.00 | 92 | 1015.0 |
| 20260502054845 | 2 | 196 | 0.0 | 1.6 | 0.00 | 0.23 | 0.00 | 92 | 1015.1 |
| 20260502054109 | 2 | 196 | 0.0 | 3.2 | 0.00 | 0.23 | 0.00 | 92 | 1015.1 |
| 20260502053603 | 2 | 196 | 0.0 | 3.2 | 0.00 | 0.23 | 0.00 | 92 | 1015.1 |
| 20260502053057 | 2 | 196 | 0.0 | 0.0 | 0.00 | 0.23 | 0.00 | 92 | 1015.1 |
| 20260502052551 | 2 | 196 | 0.0 | 0.0 | 0.00 | 0.23 | 0.00 | 92 | 1015.0 |
| 20260502052044 | 2 | 196 | 0.0 | 3.2 | 0.00 | 0.23 | 0.00 | 92 | 1015.0 |
| 20260502051540 | 2 | 196 | 0.0 | 3.2 | 0.00 | 0.23 | 0.00 | 92 | 1015.1 |
| 20260502051033 | 2 | 196 | 0.0 | 3.2 | 0.00 | 0.23 | 0.00 | 92 | 1015.1 |
| 20260502050750 | 2 | 196 | 0.0 | 3.2 | 0.00 | 0.23 | 0.00 | 92 | 1015.1 |
| 20260502050020 | 2 | 196 | 0.0 | 1.6 | 0.00 | 0.23 | 0.00 | 92 | 1015.1 |
| 20260502045513 | 2 | 196 | 0.0 | 3.2 | 0.00 | 0.23 | 0.00 | 92 | 1015.2 |
| 20260502045007 | 3 | 196 | 0.0 | 3.2 | 0.00 | 0.23 | 0.00 | 91 | 1015.1 |
| 20260502044501 | 3 | 196 | 0.0 | 3.2 | 0.00 | 0.23 | 0.00 | 91 | 1015.1 |
| 20260502043955 | 3 | 196 | 0.0 | 3.2 | 0.00 | 0.23 | 0.00 | 91 | 1015.1 |
| 20260502043449 | 3 | 196 | 0.0 | 3.2 | 0.00 | 0.23 | 0.00 | 91 | 1015.1 |
| 20260502042943 | 3 | 196 | 0.0 | 3.2 | 0.00 | 0.23 | 0.00 | 91 | 1015.1 |
| 20260502042703 | 3 | 196 | 0.0 | 3.2 | 0.00 | 0.23 | 0.00 | 92 | 1015.2 |
| 20260502041931 | 3 | 196 | 0.0 | 1.6 | 0.00 | 0.23 | 0.00 | 91 | 1015.2 |
| 20260502041425 | 2 | 196 | 0.0 | 0.0 | 0.00 | 0.23 | 0.00 | 91 | 1015.1 |
| 20260502041403 | 2 | 196 | 0.0 | 0.0 | 0.00 | 0.23 | 0.00 | 90 | 1015.2 |
| 20260502040413 | 2 | 196 | 0.0 | 0.0 | 0.00 | 0.23 | 0.00 | 90 | 1015.1 |
| 20260502040136 | 2 | 196 | 0.0 | 0.0 | 0.00 | 0.23 | 0.23 | 89 | 1015.1 |
| 20260502035621 | 3 | 196 | 0.0 | 0.0 | 0.00 | 0.23 | 0.23 | 89 | 1015.1 |
| 20260502034856 | 3 | 196 | 0.0 | 0.0 | 0.00 | 0.23 | 0.23 | 89 | 1015.0 |
| 20260502034350 | 3 | 196 | 0.0 | 0.0 | 0.00 | 0.23 | 0.23 | 89 | 1015.0 |
| 20260502033844 | 3 | 196 | 0.0 | 0.0 | 0.00 | 0.23 | 0.23 | 88 | 1015.1 |
| 20260502033338 | 3 | 196 | 0.0 | 0.0 | 0.00 | 0.23 | 0.23 | 88 | 1015.0 |
| 20260502032832 | 3 | 196 | 0.0 | 0.0 | 0.00 | 0.23 | 0.23 | 88 | 1015.2 |
| 20260502032326 | 3 | 196 | 0.0 | 0.0 | 0.00 | 0.23 | 0.23 | 88 | 1015.3 |
| 20260502031820 | 3 | 196 | 0.0 | 3.2 | 0.00 | 0.23 | 0.23 | 88 | 1015.2 |
| 20260502031314 | 3 | 196 | 0.0 | 3.2 | 0.00 | 0.23 | 0.23 | 87 | 1015.1 |
| 20260502030808 | 4 | 196 | 0.0 | 1.6 | 0.00 | 0.23 | 0.23 | 87 | 1015.1 |
| 20260502030522 | 4 | 196 | 0.0 | 3.2 | 0.00 | 0.23 | 0.23 | 87 | 1015.1 |
| 20260502030018 | 4 | 196 | 0.0 | 3.2 | 0.00 | 0.23 | 0.23 | 88 | 1015.2 |
| 20260502025515 | 4 | 196 | 0.0 | 3.2 | 0.00 | 0.23 | 0.23 | 87 | 1015.2 |
| 20260502024744 | 4 | 196 | 0.0 | 3.2 | 0.00 | 0.23 | 0.23 | 87 | 1015.1 |
| 20260502024238 | 4 | 196 | 0.0 | 0.0 | 0.00 | 0.23 | 0.23 | 87 | 1015.1 |
| 20260502024002 | 4 | 196 | 0.0 | 0.0 | 0.00 | 0.23 | 0.23 | 86 | 1015.1 |
| 20260502023226 | 4 | 196 | 0.0 | 0.0 | 0.00 | 0.23 | 0.23 | 86 | 1015.1 |
| 20260502022937 | 5 | 196 | 0.0 | 0.0 | 0.00 | 0.23 | 0.23 | 86 | 1015.0 |
| 20260502022214 | 5 | 196 | 0.0 | 0.0 | 0.00 | 0.23 | 0.23 | 89 | 1015.0 |
| 20260502021708 | 5 | 196 | 0.0 | 0.0 | 0.00 | 0.23 | 0.23 | 87 | 1014.9 |
| 20260502021202 | 5 | 196 | 0.0 | 0.0 | 0.00 | 0.23 | 0.23 | 86 | 1014.9 |
| 20260502020656 | 5 | 196 | 0.0 | 0.0 | 0.00 | 0.23 | 0.23 | 86 | 1014.8 |
| 20260502020150 | 5 | 196 | 0.0 | 3.2 | 0.00 | 0.23 | 0.23 | 85 | 1014.8 |
| 20260502015644 | 5 | 196 | 0.0 | 3.2 | 0.00 | 0.23 | 0.23 | 85 | 1014.9 |
| 20260502015139 | 5 | 196 | 0.0 | 3.2 | 0.00 | 0.23 | 0.23 | 85 | 1014.8 |
| 20260502014632 | 5 | 196 | 0.0 | 3.2 | 0.00 | 0.23 | 0.23 | 85 | 1014.8 |
| 20260502014435 | 5 | 196 | 0.0 | 3.2 | 0.00 | 0.23 | 0.23 | 85 | 1014.7 |
| 20260502014327 | 5 | 196 | 0.0 | 3.2 | 0.00 | 0.23 | 0.23 | 85 | 1014.7 |
| 20260502013115 | 5 | 196 | 0.0 | 1.6 | 0.00 | 0.23 | 0.23 | 84 | 1014.6 |
| 20260502012608 | 5 | 196 | 0.0 | 0.0 | 0.00 | 0.23 | 0.23 | 83 | 1014.4 |
| 20260502012102 | 5 | 196 | 0.0 | 0.0 | 0.00 | 0.23 | 0.23 | 83 | 1014.3 |
| 20260502011556 | 5 | 196 | 0.0 | 0.0 | 0.00 | 0.23 | 0.23 | 81 | 1014.3 |
| 20260502011050 | 5 | 196 | 0.0 | 0.0 | 0.00 | 0.23 | 0.23 | 81 | 1014.2 |
| 20260502010745 | 5 | 196 | 0.0 | 1.6 | 0.00 | 0.23 | 0.23 | 80 | 1014.1 |
| 20260502010634 | 5 | 196 | 0.0 | 1.6 | 0.00 | 0.23 | 0.23 | 81 | 1014.1 |
| 20260502005748 | 5 | 196 | 0.0 | 3.2 | 0.00 | 0.23 | 0.23 | 80 | 1014.1 |
| 20260502005247 | 5 | 196 | 0.0 | 3.2 | 0.00 | 0.23 | 0.23 | 79 | 1014.1 |
| 20260502004749 | 5 | 196 | 0.0 | 3.2 | 0.00 | 0.23 | 0.23 | 78 | 1014.2 |
| 20260502004014 | 5 | 196 | 0.0 | 3.2 | 0.00 | 0.23 | 0.23 | 78 | 1014.2 |
| 20260502003728 | 5 | 181 | 1.6 | 4.8 | 0.00 | 0.23 | 0.23 | 78 | 1014.2 |
| 20260502003002 | 5 | 251 | 1.6 | 4.8 | 0.00 | 0.23 | 0.23 | 77 | 1014.3 |
| 20260502002456 | 6 | 212 | 1.6 | 3.2 | 0.00 | 0.23 | 0.23 | 78 | 1014.4 |
| 20260502001950 | 6 | 200 | 0.0 | 3.2 | 0.00 | 0.23 | 0.23 | 77 | 1014.4 |
| 20260502001446 | 6 | 199 | 0.0 | 4.8 | 0.00 | 0.23 | 0.23 | 77 | 1014.2 |
| 20260502000938 | 6 | 196 | 0.0 | 4.8 | 0.00 | 0.23 | 0.23 | 78 | 1014.0 |
| 20260502000432 | 6 | 221 | 0.0 | 3.2 | 0.00 | 0.23 | 0.23 | 78 | 1013.9 |
| 20260502000152 | 6 | 217 | 0.0 | 3.2 | 0.00 | 0.23 | 0.23 | 79 | 1013.7 |
| 20260501235420 | 6 | 234 | 0.0 | 3.2 | 0.00 | 0.23 | 0.23 | 78 | 1013.7 |
| 20260501234914 | 6 | 232 | 0.0 | 3.2 | 0.00 | 0.23 | 0.23 | 79 | 1013.6 |
| 20260501234408 | 6 | 257 | 0.0 | 3.2 | 0.00 | 0.23 | 0.23 | 79 | 1013.5 |
| 20260501233901 | 6 | 257 | 0.0 | 3.2 | 0.00 | 0.23 | 0.23 | 80 | 1013.4 |
| 20260501233356 | 6 | 257 | 0.0 | 3.2 | 0.00 | 0.23 | 0.23 | 79 | 1013.4 |
| 20260501232850 | 6 | 257 | 0.0 | 3.2 | 0.00 | 0.23 | 0.23 | 79 | 1013.3 |
| 20260501232344 | 6 | 244 | 0.0 | 3.2 | 0.00 | 0.23 | 0.23 | 78 | 1013.2 |
| 20260501232106 | 6 | 286 | 0.0 | 3.2 | 0.00 | 0.23 | 0.23 | 78 | 1013.2 |
| 20260501231342 | 6 | 300 | 0.0 | 3.2 | 0.00 | 0.23 | 0.23 | 78 | 1013.2 |
| 20260501230840 | 6 | 305 | 0.0 | 3.2 | 0.00 | 0.23 | 0.23 | 77 | 1013.0 |
| 20260501230338 | 6 | 321 | 0.0 | 3.2 | 0.00 | 0.23 | 0.23 | 78 | 1013.0 |
| 20260501225338 | 6 | 262 | 0.0 | 3.2 | 0.00 | 0.23 | 0.23 | 77 | 1013.0 |
| 20260501224838 | 6 | 200 | 0.0 | 3.2 | 0.00 | 0.23 | 0.23 | 78 | 1013.0 |
| 20260501224338 | 6 | 220 | 0.0 | 3.2 | 0.00 | 0.23 | 0.23 | 78 | 1013.2 |
| 20260501223838 | 6 | 205 | 1.6 | 3.2 | 0.00 | 0.23 | 0.23 | 79 | 1013.1 |
| 20260501223338 | 6 | 229 | 1.6 | 4.8 | 0.00 | 0.23 | 0.23 | 78 | 1013.2 |
| 20260501222838 | 6 | 267 | 1.6 | 4.8 | 0.00 | 0.23 | 0.23 | 77 | 1013.3 |
| 20260501222338 | 6 | 244 | 1.6 | 3.2 | 0.00 | 0.23 | 0.23 | 78 | 1013.3 |
| 20260501221838 | 6 | 257 | 1.6 | 4.8 | 0.00 | 0.23 | 0.23 | 78 | 1013.2 |